Time,TemperatureF,DewpointF,PressureIn,WindDirection,WindDirectionDegrees,WindSpeedMPH,WindSpeedGustMPH,Humidity,HourlyPrecipIn,Conditions,Clouds,dailyrainin,SoftwareType,DateUTC
2013-01-11 00:03:00,37.0,-4.1,27.64,North,0,0.0,0.0,17,0.04,NA,NA,-99.99,wxupload 3.5,2013-01-11 05:03:00,
2013-01-11 00:09:00,37.0,-4.1,27.64,North,0,0.0,0.0,17,0.04,NA,NA,-99.99,wxupload 3.5,2013-01-11 05:09:00,
2013-01-11 00:13:00,36.9,-4.2,27.64,North,0,0.0,0.0,17,0.04,NA,NA,-99.99,wxupload 3.5,2013-01-11 05:13:00,
2013-01-11 00:19:00,36.9,-4.2,27.64,North,0,0.0,0.0,17,0.04,NA,NA,-99.99,wxupload 3.5,2013-01-11 05:19:00,
2013-01-11 00:23:00,36.9,-4.2,27.64,North,0,0.0,0.0,17,0.04,NA,NA,-99.99,wxupload 3.5,2013-01-11 05:23:00,
2013-01-11 00:29:00,36.9,-4.2,27.64,North,0,0.0,0.0,17,0.04,NA,NA,-99.99,wxupload 3.5,2013-01-11 05:29:00,
2013-01-11 00:35:00,36.7,-4.4,27.64,North,0,0.0,0.0,17,0.04,NA,NA,-99.99,wxupload 3.5,2013-01-11 05:35:00,
2013-01-11 00:41:00,36.7,-4.4,27.64,North,0,0.0,0.0,17,0.04,NA,NA,-99.99,wxupload 3.5,2013-01-11 05:41:00,
2013-01-11 00:47:00,36.7,-4.4,27.64,North,0,0.0,0.0,17,0.04,NA,NA,-99.99,wxupload 3.5,2013-01-11 05:47:00,
2013-01-11 00:53:00,36.3,-4.7,27.64,North,0,0.0,0.0,17,0.04,NA,NA,-99.99,wxupload 3.5,2013-01-11 05:53:00,
2013-01-11 00:59:00,36.1,-4.8,27.64,North,0,0.0,0.0,17,0.04,NA,NA,-99.99,wxupload 3.5,2013-01-11 05:59:00,
2013-01-11 01:05:00,36.0,-5.0,27.64,North,0,0.0,0.0,17,0.04,NA,NA,-99.99,wxupload 3.5,2013-01-11 06:05:00,
2013-01-11 01:11:00,36.0,-5.0,27.64,North,0,0.0,0.0,17,0.04,NA,NA,-99.99,wxupload 3.5,2013-01-11 06:11:00,
2013-01-11 01:17:00,35.8,-5.1,27.64,North,0,0.0,0.0,17,0.04,NA,NA,-99.99,wxupload 3.5,2013-01-11 06:17:00,
2013-01-11 01:23:00,35.8,-5.1,27.64,North,0,0.0,0.0,17,0.04,NA,NA,-99.99,wxupload 3.5,2013-01-11 06:23:00,
2013-01-11 01:29:00,35.6,-5.3,27.64,North,0,0.0,0.0,17,0.04,NA,NA,-99.99,wxupload 3.5,2013-01-11 06:29:00,
2013-01-11 01:35:00,35.6,-5.3,27.61,North,0,0.0,0.0,17,0.04,NA,NA,-99.99,wxupload 3.5,2013-01-11 06:35:00,
2013-01-11 01:42:00,35.4,-5.4,27.61,North,0,0.0,0.0,17,0.04,NA,NA,-99.99,wxupload 3.5,2013-01-11 06:42:00,
2013-01-11 01:48:00,35.2,-5.6,27.61,North,0,0.0,0.0,17,0.04,NA,NA,-99.99,wxupload 3.5,2013-01-11 06:48:00,
2013-01-11 01:54:00,35.1,-5.8,27.61,North,0,0.0,0.0,17,0.04,NA,NA,-99.99,wxupload 3.5,2013-01-11 06:54:00,
2013-01-11 01:59:00,34.9,-5.9,27.61,North,0,0.0,0.0,17,0.04,NA,NA,-99.99,wxupload 3.5,2013-01-11 06:59:00,
2013-01-11 02:05:00,34.9,-5.9,27.61,North,0,0.0,0.0,17,0.04,NA,NA,-99.99,wxupload 3.5,2013-01-11 07:05:00,
2013-01-11 02:11:00,34.5,-6.2,27.61,North,0,0.0,0.0,17,0.04,NA,NA,-99.99,wxupload 3.5,2013-01-11 07:11:00,
2013-01-11 02:17:00,34.5,-6.2,27.61,North,0,0.0,0.0,17,0.04,NA,NA,-99.99,wxupload 3.5,2013-01-11 07:17:00,
2013-01-11 02:23:00,34.3,-6.4,27.61,North,0,0.0,0.0,17,0.04,NA,NA,-99.99,wxupload 3.5,2013-01-11 07:23:00,
2013-01-11 02:29:00,34.3,-6.4,27.61,North,0,0.0,0.0,17,0.04,NA,NA,-99.99,wxupload 3.5,2013-01-11 07:29:00,
2013-01-11 02:35:00,34.3,-6.4,27.64,North,0,0.0,0.0,17,0.04,NA,NA,-99.99,wxupload 3.5,2013-01-11 07:35:00,
2013-01-11 02:41:00,34.2,-6.5,27.64,North,0,0.0,0.0,17,0.04,NA,NA,-99.99,wxupload 3.5,2013-01-11 07:41:00,
2013-01-11 02:47:00,34.2,-6.5,27.64,North,0,0.0,0.0,17,0.04,NA,NA,-99.99,wxupload 3.5,2013-01-11 07:47:00,
2013-01-11 02:53:00,34.0,-6.7,27.61,North,0,0.0,0.0,17,0.04,NA,NA,-99.99,wxupload 3.5,2013-01-11 07:53:00,
2013-01-11 02:59:00,34.0,-6.7,27.61,North,0,0.0,0.0,17,0.04,NA,NA,-99.99,wxupload 3.5,2013-01-11 07:59:00,
2013-01-11 03:05:00,34.0,-6.7,27.61,North,0,0.0,0.0,17,0.04,NA,NA,-99.99,wxupload 3.5,2013-01-11 08:05:00,
2013-01-11 03:11:00,33.8,-6.8,27.61,North,0,0.0,0.0,17,0.04,NA,NA,-99.99,wxupload 3.5,2013-01-11 08:11:00,
2013-01-11 03:17:00,34.0,-6.7,27.61,North,0,0.0,0.0,17,0.04,NA,NA,-99.99,wxupload 3.5,2013-01-11 08:17:00,
2013-01-11 03:23:00,33.8,-6.8,27.61,North,0,0.0,0.0,17,0.04,NA,NA,-99.99,wxupload 3.5,2013-01-11 08:23:00,
2013-01-11 03:29:00,33.8,-6.8,27.61,North,0,0.0,0.0,17,0.04,NA,NA,-99.99,wxupload 3.5,2013-01-11 08:29:00,
2013-01-11 03:35:00,33.8,-6.8,27.61,North,0,0.0,0.0,17,0.04,NA,NA,-99.99,wxupload 3.5,2013-01-11 08:35:00,
2013-01-11 03:41:00,33.6,-5.8,27.61,North,0,0.0,0.0,18,0.04,NA,NA,-99.99,wxupload 3.5,2013-01-11 08:41:00,
2013-01-11 03:47:00,33.6,-5.8,27.61,North,0,0.0,0.0,18,0.04,NA,NA,-99.99,wxupload 3.5,2013-01-11 08:47:00,
2013-01-11 03:53:00,33.6,-5.8,27.61,North,0,0.0,0.0,18,0.04,NA,NA,-99.99,wxupload 3.5,2013-01-11 08:53:00,
2013-01-11 03:59:00,33.6,-5.8,27.61,North,0,0.0,0.0,18,0.04,NA,NA,-99.99,wxupload 3.5,2013-01-11 08:59:00,
2013-01-11 04:05:00,33.6,-5.8,27.61,North,0,0.0,0.0,18,0.04,NA,NA,-99.99,wxupload 3.5,2013-01-11 09:05:00,
2013-01-11 04:11:00,33.6,-5.8,27.61,North,0,0.0,0.0,18,0.04,NA,NA,-99.99,wxupload 3.5,2013-01-11 09:11:00,
2013-01-11 04:17:00,33.6,-5.8,27.61,North,0,0.0,0.0,18,0.04,NA,NA,-99.99,wxupload 3.5,2013-01-11 09:17:00,
2013-01-11 04:24:00,33.6,-5.8,27.58,North,0,0.0,0.0,18,0.04,NA,NA,-99.99,wxupload 3.5,2013-01-11 09:24:00,
2013-01-11 04:30:00,33.4,-5.9,27.58,North,0,0.0,0.0,18,0.04,NA,NA,-99.99,wxupload 3.5,2013-01-11 09:30:00,
2013-01-11 04:36:00,33.4,-5.9,27.58,North,0,0.0,0.0,18,0.04,NA,NA,-99.99,wxupload 3.5,2013-01-11 09:36:00,
2013-01-11 04:42:00,33.3,-6.1,27.58,North,0,0.0,0.0,18,0.04,NA,NA,-99.99,wxupload 3.5,2013-01-11 09:42:00,
2013-01-11 04:48:00,33.3,-6.1,27.58,North,0,0.0,0.0,18,0.04,NA,NA,-99.99,wxupload 3.5,2013-01-11 09:48:00,
2013-01-11 04:53:00,33.4,-5.9,27.58,North,0,0.0,0.0,18,0.04,NA,NA,-99.99,wxupload 3.5,2013-01-11 09:53:00,
2013-01-11 04:59:00,33.3,-6.1,27.58,North,0,0.0,0.0,18,0.04,NA,NA,-99.99,wxupload 3.5,2013-01-11 09:59:00,
2013-01-11 05:05:00,33.3,-6.1,27.55,North,0,0.0,0.0,18,0.04,NA,NA,-99.99,wxupload 3.5,2013-01-11 10:05:00,
2013-01-11 05:11:00,33.3,-6.1,27.55,North,0,0.0,0.0,18,0.04,NA,NA,-99.99,wxupload 3.5,2013-01-11 10:11:00,
2013-01-11 05:17:00,33.1,-6.2,27.55,North,0,0.0,0.0,18,0.04,NA,NA,-99.99,wxupload 3.5,2013-01-11 10:17:00,
2013-01-11 05:23:00,33.1,-6.2,27.55,North,0,0.0,0.0,18,0.04,NA,NA,-99.99,wxupload 3.5,2013-01-11 10:23:00,
2013-01-11 05:29:00,32.9,-6.4,27.55,North,0,0.0,0.0,18,0.04,NA,NA,-99.99,wxupload 3.5,2013-01-11 10:29:00,
2013-01-11 05:35:00,32.9,-6.4,27.55,North,0,0.0,0.0,18,0.04,NA,NA,-99.99,wxupload 3.5,2013-01-11 10:35:00,
2013-01-11 05:41:00,33.1,-6.2,27.55,North,0,0.0,0.0,18,0.04,NA,NA,-99.99,wxupload 3.5,2013-01-11 10:41:00,
2013-01-11 05:47:00,33.1,-6.2,27.55,North,0,0.0,0.0,18,0.04,NA,NA,-99.99,wxupload 3.5,2013-01-11 10:47:00,
2013-01-11 05:53:00,32.9,-6.4,27.55,North,0,0.0,0.0,18,0.04,NA,NA,-99.99,wxupload 3.5,2013-01-11 10:53:00,
2013-01-11 05:59:00,32.9,-6.4,27.55,North,0,0.0,0.0,18,0.04,NA,NA,-99.99,wxupload 3.5,2013-01-11 10:59:00,
2013-01-11 06:05:00,32.9,-6.4,27.55,North,0,0.0,0.0,18,0.04,NA,NA,-99.99,wxupload 3.5,2013-01-11 11:05:00,
2013-01-11 06:11:00,32.9,-6.4,27.55,North,0,0.0,0.0,18,0.04,NA,NA,-99.99,wxupload 3.5,2013-01-11 11:11:00,
2013-01-11 06:17:00,33.1,-6.2,27.55,North,0,0.0,0.0,18,0.04,NA,NA,-99.99,wxupload 3.5,2013-01-11 11:17:00,
2013-01-11 06:23:00,33.1,-6.2,27.55,North,0,0.0,0.0,18,0.04,NA,NA,-99.99,wxupload 3.5,2013-01-11 11:23:00,
2013-01-11 06:29:00,33.1,-6.2,27.55,North,0,0.0,0.0,18,0.04,NA,NA,-99.99,wxupload 3.5,2013-01-11 11:29:00,
2013-01-11 06:35:00,33.1,-6.2,27.55,North,0,0.0,0.0,18,0.04,NA,NA,-99.99,wxupload 3.5,2013-01-11 11:35:00,
2013-01-11 06:41:00,32.9,-6.4,27.55,North,0,0.0,0.0,18,0.04,NA,NA,-99.99,wxupload 3.5,2013-01-11 11:41:00,
2013-01-11 06:47:00,32.9,-6.4,27.55,North,0,0.0,0.0,18,0.04,NA,NA,-99.99,wxupload 3.5,2013-01-11 11:47:00,
2013-01-11 06:53:00,32.9,-6.4,27.55,North,0,0.0,0.0,18,0.04,NA,NA,-99.99,wxupload 3.5,2013-01-11 11:53:00,
2013-01-11 06:59:00,33.1,-6.2,27.55,North,0,0.0,0.0,18,0.04,NA,NA,-99.99,wxupload 3.5,2013-01-11 11:59:00,
2013-01-11 07:06:00,33.1,-6.2,27.55,North,0,0.0,0.0,18,0.04,NA,NA,-99.99,wxupload 3.5,2013-01-11 12:06:00,
2013-01-11 07:12:00,33.1,-6.2,27.55,North,0,0.0,0.0,18,0.04,NA,NA,-99.99,wxupload 3.5,2013-01-11 12:12:00,
2013-01-11 07:18:00,33.1,-6.2,27.55,North,0,0.0,0.0,18,0.04,NA,NA,-99.99,wxupload 3.5,2013-01-11 12:18:00,
2013-01-11 07:24:00,33.3,-6.1,27.55,North,0,0.0,0.0,18,0.04,NA,NA,-99.99,wxupload 3.5,2013-01-11 12:24:00,
2013-01-11 07:29:00,33.3,-6.1,27.55,North,0,0.0,0.0,18,0.04,NA,NA,-99.99,wxupload 3.5,2013-01-11 12:29:00,
2013-01-11 07:35:00,33.3,-6.1,27.55,North,0,0.0,0.0,18,0.04,NA,NA,-99.99,wxupload 3.5,2013-01-11 12:35:00,
2013-01-11 07:41:00,33.3,-6.1,27.55,North,0,0.0,0.0,18,0.04,NA,NA,-99.99,wxupload 3.5,2013-01-11 12:41:00,
2013-01-11 07:47:00,33.3,-6.1,27.55,North,0,0.0,0.0,18,0.04,NA,NA,-99.99,wxupload 3.5,2013-01-11 12:47:00,
2013-01-11 07:53:00,33.4,-5.9,27.55,North,0,0.0,0.0,18,0.04,NA,NA,-99.99,wxupload 3.5,2013-01-11 12:53:00,
2013-01-11 07:59:00,33.6,-5.8,27.55,North,0,0.0,0.0,18,0.04,NA,NA,-99.99,wxupload 3.5,2013-01-11 12:59:00,
2013-01-11 08:05:00,33.6,-5.8,27.55,North,0,0.0,0.0,18,0.04,NA,NA,-99.99,wxupload 3.5,2013-01-11 13:05:00,
2013-01-11 08:11:00,33.8,-6.8,27.55,North,0,0.0,0.0,17,0.04,NA,NA,-99.99,wxupload 3.5,2013-01-11 13:11:00,
2013-01-11 08:17:00,33.8,-6.8,27.55,North,0,0.0,0.0,17,0.04,NA,NA,-99.99,wxupload 3.5,2013-01-11 13:17:00,
2013-01-11 08:23:00,34.0,-6.7,27.55,North,0,0.0,0.0,17,0.04,NA,NA,-99.99,wxupload 3.5,2013-01-11 13:23:00,
2013-01-11 08:29:00,34.0,-6.7,27.55,North,0,0.0,0.0,17,0.04,NA,NA,-99.99,wxupload 3.5,2013-01-11 13:29:00,
2013-01-11 08:35:00,34.0,-6.7,27.52,North,0,0.0,0.0,17,0.04,NA,NA,-99.99,wxupload 3.5,2013-01-11 13:35:00,
2013-01-11 08:41:00,34.3,-6.4,27.52,North,0,0.0,0.0,17,0.04,NA,NA,-99.99,wxupload 3.5,2013-01-11 13:41:00,
2013-01-11 08:47:00,34.5,-6.2,27.52,North,0,0.0,0.0,17,0.04,NA,NA,-99.99,wxupload 3.5,2013-01-11 13:47:00,
2013-01-11 08:53:00,34.5,-6.2,27.52,North,0,0.0,0.0,17,0.04,NA,NA,-99.99,wxupload 3.5,2013-01-11 13:53:00,
2013-01-11 08:59:00,34.5,-6.2,27.52,North,0,0.0,0.0,17,0.04,NA,NA,-99.99,wxupload 3.5,2013-01-11 13:59:00,
2013-01-11 09:05:00,34.5,-6.2,27.49,North,0,0.0,0.0,17,0.04,NA,NA,-99.99,wxupload 3.5,2013-01-11 14:05:00,
2013-01-11 09:11:00,34.5,-6.2,27.49,North,0,0.0,0.0,17,0.04,NA,NA,-99.99,wxupload 3.5,2013-01-11 14:11:00,
2013-01-11 09:17:00,34.9,-5.9,27.49,North,0,0.0,0.0,17,0.04,NA,NA,-99.99,wxupload 3.5,2013-01-11 14:17:00,
2013-01-11 09:23:00,35.1,-5.8,27.52,North,0,0.0,0.0,17,0.04,NA,NA,-99.99,wxupload 3.5,2013-01-11 14:23:00,
2013-01-11 09:30:00,35.4,-5.4,27.52,North,0,0.0,0.0,17,0.04,NA,NA,-99.99,wxupload 3.5,2013-01-11 14:30:00,
2013-01-11 09:36:00,35.6,-5.3,27.52,North,0,0.0,0.0,17,0.04,NA,NA,-99.99,wxupload 3.5,2013-01-11 14:36:00,
2013-01-11 09:42:00,35.8,-5.1,27.52,North,0,0.0,0.0,17,0.04,NA,NA,-99.99,wxupload 3.5,2013-01-11 14:42:00,
2013-01-11 09:47:00,36.1,-4.8,27.52,North,0,0.0,0.0,17,0.04,NA,NA,-99.99,wxupload 3.5,2013-01-11 14:47:00,
2013-01-11 09:53:00,36.5,-4.5,27.49,North,0,0.0,0.0,17,0.04,NA,NA,-99.99,wxupload 3.5,2013-01-11 14:53:00,
2013-01-11 09:59:00,36.7,-4.4,27.49,North,0,0.0,0.0,17,0.04,NA,NA,-99.99,wxupload 3.5,2013-01-11 14:59:00,
2013-01-11 10:05:00,36.7,-4.4,27.49,North,0,0.0,0.0,17,0.04,NA,NA,-99.99,wxupload 3.5,2013-01-11 15:05:00,
2013-01-11 10:11:00,36.5,-4.5,27.49,North,0,0.0,0.0,17,0.04,NA,NA,-99.99,wxupload 3.5,2013-01-11 15:11:00,
2013-01-11 10:17:00,36.3,-4.7,27.49,North,0,0.0,0.0,17,0.04,NA,NA,-99.99,wxupload 3.5,2013-01-11 15:17:00,
2013-01-11 10:23:00,36.7,-4.4,27.49,North,0,0.0,0.0,17,0.04,NA,NA,-99.99,wxupload 3.5,2013-01-11 15:23:00,
2013-01-11 10:29:00,37.2,-3.9,27.49,North,0,0.0,0.0,17,0.04,NA,NA,-99.99,wxupload 3.5,2013-01-11 15:29:00,
2013-01-11 10:35:00,37.0,-4.1,27.49,North,0,0.0,0.0,17,0.04,NA,NA,-99.99,wxupload 3.5,2013-01-11 15:35:00,
2013-01-11 10:41:00,36.7,-4.4,27.49,North,0,0.0,0.0,17,0.04,NA,NA,-99.99,wxupload 3.5,2013-01-11 15:41:00,
2013-01-11 10:47:00,36.5,-4.5,27.49,North,0,0.0,0.0,17,0.04,NA,NA,-99.99,wxupload 3.5,2013-01-11 15:47:00,
2013-01-11 10:53:00,36.9,-4.2,27.49,North,0,0.0,0.0,17,0.04,NA,NA,-99.99,wxupload 3.5,2013-01-11 15:53:00,
2013-01-11 10:59:00,37.6,-4.9,27.49,North,0,0.0,0.0,16,0.04,NA,NA,-99.99,wxupload 3.5,2013-01-11 15:59:00,
2013-01-11 11:05:00,37.6,-4.9,27.46,North,0,0.0,0.0,16,0.04,NA,NA,-99.99,wxupload 3.5,2013-01-11 16:05:00,
2013-01-11 11:11:00,37.6,-4.9,27.46,North,0,0.0,0.0,16,0.04,NA,NA,-99.99,wxupload 3.5,2013-01-11 16:11:00,
2013-01-11 11:17:00,37.4,-5.1,27.46,North,0,0.0,0.0,16,0.04,NA,NA,-99.99,wxupload 3.5,2013-01-11 16:17:00,
2013-01-11 11:23:00,37.6,-4.9,27.46,North,0,0.0,0.0,16,0.04,NA,NA,-99.99,wxupload 3.5,2013-01-11 16:23:00,
2013-01-11 11:29:00,37.9,-4.6,27.46,North,0,0.0,0.0,16,0.04,NA,NA,-99.99,wxupload 3.5,2013-01-11 16:29:00,
2013-01-11 11:35:00,38.5,-4.2,27.43,North,0,0.0,0.0,16,0.04,NA,NA,-99.99,wxupload 3.5,2013-01-11 16:35:00,
2013-01-11 11:41:00,38.8,-3.9,27.43,North,0,0.0,0.0,16,0.04,NA,NA,-99.99,wxupload 3.5,2013-01-11 16:41:00,
2013-01-11 11:48:00,39.0,-3.7,27.43,North,0,0.0,0.0,16,0.04,NA,NA,-99.99,wxupload 3.5,2013-01-11 16:48:00,
2013-01-11 11:54:00,39.2,-3.6,27.43,North,0,0.0,0.0,16,0.04,NA,NA,-99.99,wxupload 3.5,2013-01-11 16:54:00,
2013-01-11 12:00:00,39.7,-3.1,27.43,North,0,0.0,0.0,16,0.04,NA,NA,-99.99,wxupload 3.5,2013-01-11 17:00:00,
2013-01-11 12:05:00,39.7,-3.1,27.43,North,0,0.0,0.0,16,0.04,NA,NA,-99.99,wxupload 3.5,2013-01-11 17:05:00,
2013-01-11 12:11:00,39.9,-3.0,27.43,North,0,0.0,0.0,16,0.04,NA,NA,-99.99,wxupload 3.5,2013-01-11 17:11:00,
2013-01-11 12:17:00,39.7,-3.1,27.43,North,0,0.0,0.0,16,0.04,NA,NA,-99.99,wxupload 3.5,2013-01-11 17:17:00,
2013-01-11 12:23:00,39.7,-3.1,27.40,North,0,0.0,0.0,16,0.04,NA,NA,-99.99,wxupload 3.5,2013-01-11 17:23:00,
2013-01-11 12:29:00,39.9,-3.0,27.40,North,0,0.0,0.0,16,0.04,NA,NA,-99.99,wxupload 3.5,2013-01-11 17:29:00,
2013-01-11 12:35:00,39.9,-3.0,27.40,North,0,0.0,0.0,16,0.04,NA,NA,-99.99,wxupload 3.5,2013-01-11 17:35:00,
2013-01-11 12:41:00,39.9,-3.0,27.40,North,0,0.0,0.0,16,0.04,NA,NA,-99.99,wxupload 3.5,2013-01-11 17:41:00,
2013-01-11 12:47:00,39.9,-3.0,27.40,North,0,0.0,0.0,16,0.04,NA,NA,-99.99,wxupload 3.5,2013-01-11 17:47:00,
2013-01-11 12:53:00,40.3,-2.7,27.40,North,0,0.0,0.0,16,0.04,NA,NA,-99.99,wxupload 3.5,2013-01-11 17:53:00,
2013-01-11 12:59:00,40.5,-2.5,27.40,North,0,0.0,0.0,16,0.04,NA,NA,-99.99,wxupload 3.5,2013-01-11 17:59:00,
2013-01-11 13:05:00,40.5,-2.5,27.40,North,0,0.0,0.0,16,0.04,NA,NA,-99.99,wxupload 3.5,2013-01-11 18:05:00,
2013-01-11 13:11:00,40.1,-2.8,27.40,North,0,0.0,0.0,16,0.04,NA,NA,-99.99,wxupload 3.5,2013-01-11 18:11:00,
2013-01-11 13:17:00,39.9,-3.0,27.40,North,0,0.0,0.0,16,0.04,NA,NA,-99.99,wxupload 3.5,2013-01-11 18:17:00,
2013-01-11 13:23:00,39.9,-3.0,27.40,North,0,0.0,0.0,16,0.04,NA,NA,-99.99,wxupload 3.5,2013-01-11 18:23:00,
2013-01-11 13:29:00,39.9,-3.0,27.40,North,0,0.0,0.0,16,0.04,NA,NA,-99.99,wxupload 3.5,2013-01-11 18:29:00,
2013-01-11 13:35:00,40.1,-2.8,27.37,North,0,0.0,0.0,16,0.04,NA,NA,-99.99,wxupload 3.5,2013-01-11 18:35:00,
2013-01-11 13:41:00,40.3,-2.7,27.37,North,0,0.0,0.0,16,0.04,NA,NA,-99.99,wxupload 3.5,2013-01-11 18:41:00,
2013-01-11 13:47:00,40.5,-2.5,27.37,North,0,0.0,0.0,16,0.04,NA,NA,-99.99,wxupload 3.5,2013-01-11 18:47:00,
2013-01-11 13:54:00,40.3,-2.7,27.37,North,0,0.0,0.0,16,0.04,NA,NA,-99.99,wxupload 3.5,2013-01-11 18:54:00,
2013-01-11 14:00:00,40.1,-2.8,27.37,North,0,0.0,0.0,16,0.04,NA,NA,-99.99,wxupload 3.5,2013-01-11 19:00:00,
2013-01-11 14:06:00,39.9,-3.0,27.37,North,0,0.0,0.0,16,0.04,NA,NA,-99.99,wxupload 3.5,2013-01-11 19:06:00,
2013-01-11 14:11:00,39.7,-3.1,27.37,North,0,0.0,0.0,16,0.04,NA,NA,-99.99,wxupload 3.5,2013-01-11 19:11:00,
2013-01-11 14:17:00,39.6,-3.3,27.37,North,0,0.0,0.0,16,0.04,NA,NA,-99.99,wxupload 3.5,2013-01-11 19:17:00,
2013-01-11 14:23:00,39.4,-0.9,27.37,North,0,0.0,0.0,18,0.04,NA,NA,-99.99,wxupload 3.5,2013-01-11 19:23:00,
2013-01-11 14:29:00,39.0,5.1,27.37,North,0,0.0,0.0,24,0.04,NA,NA,-99.99,wxupload 3.5,2013-01-11 19:29:00,
2013-01-11 14:35:00,38.8,9.2,27.37,North,0,0.0,0.0,29,0.04,NA,NA,-99.99,wxupload 3.5,2013-01-11 19:35:00,
2013-01-11 14:41:00,38.8,9.9,27.37,North,0,0.0,0.0,30,0.04,NA,NA,-99.99,wxupload 3.5,2013-01-11 19:41:00,
2013-01-11 14:47:00,38.8,10.7,27.37,North,0,0.0,0.0,31,0.04,NA,NA,-99.99,wxupload 3.5,2013-01-11 19:47:00,
2013-01-11 14:53:00,38.8,11.4,27.37,North,0,0.0,0.0,32,0.04,NA,NA,-99.99,wxupload 3.5,2013-01-11 19:53:00,
2013-01-11 14:59:00,39.0,12.3,27.37,North,0,0.0,0.0,33,0.04,NA,NA,-99.99,wxupload 3.5,2013-01-11 19:59:00,
2013-01-11 15:05:00,39.6,14.1,27.37,North,0,0.0,0.0,35,0.04,NA,NA,-99.99,wxupload 3.5,2013-01-11 20:05:00,
2013-01-11 15:11:00,39.7,15.5,27.37,North,0,0.0,0.0,37,0.04,NA,NA,-99.99,wxupload 3.5,2013-01-11 20:11:00,
2013-01-11 15:17:00,39.9,16.3,27.37,North,0,0.0,0.0,38,0.04,NA,NA,-99.99,wxupload 3.5,2013-01-11 20:17:00,
2013-01-11 15:23:00,39.9,16.9,27.35,North,0,0.0,0.0,39,0.04,NA,NA,-99.99,wxupload 3.5,2013-01-11 20:23:00,
2013-01-11 15:29:00,40.1,17.1,27.35,North,0,0.0,0.0,39,0.04,NA,NA,-99.99,wxupload 3.5,2013-01-11 20:29:00,
2013-01-11 15:35:00,40.3,17.3,27.35,North,0,0.0,0.0,39,0.04,NA,NA,-99.99,wxupload 3.5,2013-01-11 20:35:00,
2013-01-11 15:41:00,40.3,17.8,27.35,North,0,0.0,0.0,40,0.04,NA,NA,-99.99,wxupload 3.5,2013-01-11 20:41:00,
2013-01-11 15:47:00,40.5,18.0,27.35,North,0,0.0,0.0,40,0.04,NA,NA,-99.99,wxupload 3.5,2013-01-11 20:47:00,
2013-01-11 15:54:00,40.6,18.8,27.35,North,0,0.0,0.0,41,0.04,NA,NA,-99.99,wxupload 3.5,2013-01-11 20:54:00,
2013-01-11 16:00:00,41.0,19.6,27.35,North,0,0.0,0.0,42,0.04,NA,NA,-99.99,wxupload 3.5,2013-01-11 21:00:00,
2013-01-11 16:05:00,41.4,21.1,27.35,North,0,0.0,0.0,44,0.04,NA,NA,-99.99,wxupload 3.5,2013-01-11 21:05:00,
2013-01-11 16:11:00,41.7,21.9,27.35,North,0,0.0,0.0,45,0.04,NA,NA,-99.99,wxupload 3.5,2013-01-11 21:11:00,
2013-01-11 16:17:00,42.1,22.8,27.35,North,0,0.0,0.0,46,0.04,NA,NA,-99.99,wxupload 3.5,2013-01-11 21:17:00,
2013-01-11 16:23:00,42.1,23.3,27.35,North,0,0.0,0.0,47,0.04,NA,NA,-99.99,wxupload 3.5,2013-01-11 21:23:00,
2013-01-11 16:29:00,42.3,24.0,27.35,North,0,0.0,0.0,48,0.04,NA,NA,-99.99,wxupload 3.5,2013-01-11 21:29:00,
2013-01-11 16:35:00,42.4,24.6,27.35,North,0,0.0,0.0,49,0.04,NA,NA,-99.99,wxupload 3.5,2013-01-11 21:35:00,
2013-01-11 16:41:00,42.4,24.6,27.35,North,0,0.0,0.0,49,0.04,NA,NA,-99.99,wxupload 3.5,2013-01-11 21:41:00,
2013-01-11 16:47:00,42.4,25.1,27.35,North,0,0.0,0.0,50,0.04,NA,NA,-99.99,wxupload 3.5,2013-01-11 21:47:00,
2013-01-11 16:53:00,42.4,25.1,27.35,North,0,0.0,0.0,50,0.04,NA,NA,-99.99,wxupload 3.5,2013-01-11 21:53:00,
2013-01-11 16:59:00,42.6,25.3,27.35,North,0,0.0,0.0,50,0.04,NA,NA,-99.99,wxupload 3.5,2013-01-11 21:59:00,
2013-01-11 17:05:00,42.8,25.5,27.35,North,0,0.0,0.0,50,0.04,NA,NA,-99.99,wxupload 3.5,2013-01-11 22:05:00,
2013-01-11 17:11:00,43.0,26.1,27.35,North,0,0.0,0.0,51,0.04,NA,NA,-99.99,wxupload 3.5,2013-01-11 22:11:00,
2013-01-11 17:17:00,43.0,26.1,27.35,North,0,0.0,0.0,51,0.04,NA,NA,-99.99,wxupload 3.5,2013-01-11 22:17:00,
2013-01-11 17:23:00,43.0,26.1,27.35,North,0,0.0,0.0,51,0.04,NA,NA,-99.99,wxupload 3.5,2013-01-11 22:23:00,
2013-01-11 17:29:00,42.8,25.9,27.35,North,0,0.0,0.0,51,0.04,NA,NA,-99.99,wxupload 3.5,2013-01-11 22:29:00,
2013-01-11 17:35:00,43.0,26.1,27.35,North,0,0.0,0.0,51,0.04,NA,NA,-99.99,wxupload 3.5,2013-01-11 22:35:00,
2013-01-11 17:42:00,43.0,26.1,27.35,North,0,0.0,0.0,51,0.04,NA,NA,-99.99,wxupload 3.5,2013-01-11 22:42:00,
2013-01-11 17:48:00,42.8,25.9,27.35,North,0,0.0,0.0,51,0.04,NA,NA,-99.99,wxupload 3.5,2013-01-11 22:48:00,
2013-01-11 17:53:00,42.4,26.1,27.35,North,0,0.0,0.0,52,0.04,NA,NA,-99.99,wxupload 3.5,2013-01-11 22:53:00,
2013-01-11 17:59:00,42.4,26.1,27.35,North,0,0.0,0.0,52,0.04,NA,NA,-99.99,wxupload 3.5,2013-01-11 22:59:00,
2013-01-11 18:05:00,42.3,25.9,27.35,North,0,0.0,0.0,52,0.04,NA,NA,-99.99,wxupload 3.5,2013-01-11 23:05:00,
2013-01-11 18:11:00,42.3,25.9,27.35,North,0,0.0,0.0,52,0.04,NA,NA,-99.99,wxupload 3.5,2013-01-11 23:11:00,
2013-01-11 18:17:00,42.1,25.7,27.35,North,0,0.0,0.0,52,0.04,NA,NA,-99.99,wxupload 3.5,2013-01-11 23:17:00,
2013-01-11 18:23:00,42.1,25.7,27.35,North,0,0.0,0.0,52,0.04,NA,NA,-99.99,wxupload 3.5,2013-01-11 23:23:00,
2013-01-11 18:29:00,42.1,25.7,27.35,North,0,0.0,0.0,52,0.04,NA,NA,-99.99,wxupload 3.5,2013-01-11 23:29:00,
2013-01-11 18:35:00,42.1,25.7,27.35,North,0,0.0,0.0,52,0.04,NA,NA,-99.99,wxupload 3.5,2013-01-11 23:35:00,
2013-01-11 18:41:00,41.9,25.6,27.35,North,0,0.0,0.0,52,0.04,NA,NA,-99.99,wxupload 3.5,2013-01-11 23:41:00,
2013-01-11 18:47:00,42.1,25.7,27.35,North,0,0.0,0.0,52,0.04,NA,NA,-99.99,wxupload 3.5,2013-01-11 23:47:00,
2013-01-11 18:53:00,41.7,25.4,27.35,North,0,0.0,0.0,52,0.04,NA,NA,-99.99,wxupload 3.5,2013-01-11 23:53:00,
2013-01-11 18:59:00,41.5,25.2,27.35,North,0,0.0,0.0,52,0.04,NA,NA,-99.99,wxupload 3.5,2013-01-11 23:59:00,
2013-01-11 19:05:00,41.5,25.2,27.35,North,0,0.0,0.0,52,0.04,NA,NA,-99.99,wxupload 3.5,2013-01-12 00:05:00,
2013-01-11 19:11:00,42.3,26.4,27.35,North,0,0.0,0.0,53,0.04,NA,NA,-99.99,wxupload 3.5,2013-01-12 00:11:00,
2013-01-11 19:17:00,43.2,27.2,27.35,North,0,0.0,0.0,53,0.04,NA,NA,-99.99,wxupload 3.5,2013-01-12 00:17:00,
2013-01-11 19:23:00,43.7,27.7,27.35,North,0,0.0,0.0,53,0.04,NA,NA,-99.99,wxupload 3.5,2013-01-12 00:23:00,
2013-01-11 19:29:00,43.3,27.4,27.35,North,0,0.0,0.0,53,0.04,NA,NA,-99.99,wxupload 3.5,2013-01-12 00:29:00,
2013-01-11 19:36:00,42.8,26.9,27.35,North,0,0.0,0.0,53,0.04,NA,NA,-99.99,wxupload 3.5,2013-01-12 00:36:00,
2013-01-11 19:42:00,42.4,26.5,27.35,North,0,0.0,0.0,53,0.04,NA,NA,-99.99,wxupload 3.5,2013-01-12 00:42:00,
2013-01-11 19:48:00,43.2,27.2,27.35,North,0,0.0,0.0,53,0.04,NA,NA,-99.99,wxupload 3.5,2013-01-12 00:48:00,
2013-01-11 19:53:00,44.1,28.1,27.35,North,0,0.0,0.0,53,0.04,NA,NA,-99.99,wxupload 3.5,2013-01-12 00:53:00,
2013-01-11 19:59:00,44.2,28.2,27.35,North,0,0.0,0.0,53,0.04,NA,NA,-99.99,wxupload 3.5,2013-01-12 00:59:00,
2013-01-11 20:05:00,43.9,27.9,27.35,North,0,0.0,0.0,53,0.04,NA,NA,-99.99,wxupload 3.5,2013-01-12 01:05:00,
2013-01-11 20:11:00,43.0,27.0,27.35,North,0,0.0,0.0,53,0.04,NA,NA,-99.99,wxupload 3.5,2013-01-12 01:11:00,
2013-01-11 20:17:00,43.7,27.7,27.35,North,0,0.0,0.0,53,0.04,NA,NA,-99.99,wxupload 3.5,2013-01-12 01:17:00,
2013-01-11 20:23:00,44.2,28.2,27.35,North,0,0.0,0.0,53,0.04,NA,NA,-99.99,wxupload 3.5,2013-01-12 01:23:00,
2013-01-11 20:29:00,44.6,28.6,27.35,North,0,0.0,0.0,53,0.04,NA,NA,-99.99,wxupload 3.5,2013-01-12 01:29:00,
2013-01-11 20:35:00,44.4,28.4,27.35,North,0,0.0,0.0,53,0.04,NA,NA,-99.99,wxupload 3.5,2013-01-12 01:35:00,
2013-01-11 20:41:00,44.6,28.6,27.35,North,0,0.0,0.0,53,0.04,NA,NA,-99.99,wxupload 3.5,2013-01-12 01:41:00,
2013-01-11 20:47:00,45.0,28.9,27.35,North,0,0.0,0.0,53,0.04,NA,NA,-99.99,wxupload 3.5,2013-01-12 01:47:00,
2013-01-11 20:53:00,44.8,28.7,27.35,North,0,0.0,0.0,53,0.04,NA,NA,-99.99,wxupload 3.5,2013-01-12 01:53:00,
2013-01-11 20:59:00,44.6,28.6,27.35,North,0,0.0,0.0,53,0.04,NA,NA,-99.99,wxupload 3.5,2013-01-12 01:59:00,
2013-01-11 21:06:00,45.0,28.9,27.35,North,0,0.0,0.0,53,0.04,NA,NA,-99.99,wxupload 3.5,2013-01-12 02:06:00,
2013-01-11 21:12:00,45.1,29.1,27.35,North,0,0.0,0.0,53,0.04,NA,NA,-99.99,wxupload 3.5,2013-01-12 02:12:00,
2013-01-11 21:18:00,44.8,28.7,27.35,North,0,0.0,0.0,53,0.04,NA,NA,-99.99,wxupload 3.5,2013-01-12 02:18:00,
2013-01-11 21:23:00,45.1,29.1,27.35,North,0,0.0,0.0,53,0.04,NA,NA,-99.99,wxupload 3.5,2013-01-12 02:23:00,
2013-01-11 21:29:00,45.5,29.4,27.35,North,0,0.0,0.0,53,0.04,NA,NA,-99.99,wxupload 3.5,2013-01-12 02:29:00,
2013-01-11 21:35:00,45.5,29.4,27.35,North,0,0.0,0.0,53,0.04,NA,NA,-99.99,wxupload 3.5,2013-01-12 02:35:00,
2013-01-11 21:41:00,45.9,29.7,27.35,North,0,0.0,0.0,53,0.04,NA,NA,-99.99,wxupload 3.5,2013-01-12 02:41:00,
2013-01-11 21:47:00,46.0,29.9,27.35,North,0,0.0,0.0,53,0.04,NA,NA,-99.99,wxupload 3.5,2013-01-12 02:47:00,
2013-01-11 21:53:00,45.9,29.7,27.35,North,0,0.0,0.0,53,0.04,NA,NA,-99.99,wxupload 3.5,2013-01-12 02:53:00,
2013-01-11 21:59:00,45.7,29.6,27.35,North,0,0.0,0.0,53,0.04,NA,NA,-99.99,wxupload 3.5,2013-01-12 02:59:00,
2013-01-11 22:05:00,45.9,29.7,27.35,North,0,0.0,0.0,53,0.04,NA,NA,-99.99,wxupload 3.5,2013-01-12 03:05:00,
2013-01-11 22:11:00,46.2,30.1,27.35,North,0,0.0,0.0,53,0.04,NA,NA,-99.99,wxupload 3.5,2013-01-12 03:11:00,
2013-01-11 22:17:00,46.2,30.1,27.35,North,0,0.0,0.0,53,0.04,NA,NA,-99.99,wxupload 3.5,2013-01-12 03:17:00,
2013-01-11 22:23:00,46.4,30.3,27.35,North,0,0.0,0.0,53,0.04,NA,NA,-99.99,wxupload 3.5,2013-01-12 03:23:00,
2013-01-11 22:29:00,46.2,30.1,27.35,North,0,0.0,0.0,53,0.04,NA,NA,-99.99,wxupload 3.5,2013-01-12 03:29:00,
2013-01-11 22:35:00,46.2,30.1,27.35,North,0,0.0,0.0,53,0.04,NA,NA,-99.99,wxupload 3.5,2013-01-12 03:35:00,
2013-01-11 22:41:00,46.4,30.3,27.35,North,0,0.0,0.0,53,0.04,NA,NA,-99.99,wxupload 3.5,2013-01-12 03:41:00,
2013-01-11 22:47:00,46.6,30.4,27.35,North,0,0.0,0.0,53,0.04,NA,NA,-99.99,wxupload 3.5,2013-01-12 03:47:00,
2013-01-11 22:53:00,46.8,30.6,27.35,North,0,0.0,0.0,53,0.04,NA,NA,-99.99,wxupload 3.5,2013-01-12 03:53:00,
2013-01-11 23:00:00,46.8,30.6,27.35,North,0,0.0,0.0,53,0.04,NA,NA,-99.99,wxupload 3.5,2013-01-12 04:00:00,
2013-01-11 23:06:00,47.3,31.1,27.35,North,0,0.0,0.0,53,0.04,NA,NA,-99.99,wxupload 3.5,2013-01-12 04:06:00,
2013-01-11 23:11:00,47.3,31.1,27.35,North,0,0.0,0.0,53,0.04,NA,NA,-99.99,wxupload 3.5,2013-01-12 04:11:00,
2013-01-11 23:17:00,47.1,30.9,27.35,North,0,0.0,0.0,53,0.04,NA,NA,-99.99,wxupload 3.5,2013-01-12 04:17:00,
2013-01-11 23:23:00,47.1,30.9,27.35,North,0,0.0,0.0,53,0.04,NA,NA,-99.99,wxupload 3.5,2013-01-12 04:23:00,
2013-01-11 23:29:00,47.3,31.1,27.35,North,0,0.0,0.0,53,0.04,NA,NA,-99.99,wxupload 3.5,2013-01-12 04:29:00,
2013-01-11 23:35:00,46.8,30.6,27.35,North,0,0.0,0.0,53,0.04,NA,NA,-99.99,wxupload 3.5,2013-01-12 04:35:00,
2013-01-11 23:41:00,46.8,30.6,27.35,North,0,0.0,0.0,53,0.04,NA,NA,-99.99,wxupload 3.5,2013-01-12 04:41:00,
2013-01-11 23:47:00,46.6,30.4,27.35,North,0,0.0,0.0,53,0.04,NA,NA,-99.99,wxupload 3.5,2013-01-12 04:47:00,
2013-01-11 23:53:00,46.6,30.4,27.35,North,0,0.0,0.0,53,0.04,NA,NA,-99.99,wxupload 3.5,2013-01-12 04:53:00,
2013-01-11 23:59:00,46.8,30.6,27.35,North,0,0.0,0.0,53,0.04,NA,NA,-99.99,wxupload 3.5,2013-01-12 04:59:00,